EST,Max TemperatureF,Mean TemperatureF,Min TemperatureF,Max Dew PointF,MeanDew PointF,Min DewpointF,Max Humidity, Mean Humidity, Min Humidity, Max Sea Level PressureIn, Mean Sea Level PressureIn, Min Sea Level PressureIn, Max VisibilityMiles, Mean VisibilityMiles, Min VisibilityMiles, Max Wind SpeedMPH, Mean Wind SpeedMPH, Max Gust SpeedMPH,PrecipitationIn, CloudCover, Events, WindDirDegrees
2014-2-1,52,42,32,28,25,20,78,54,30,30.14,30.01,29.87,10,10,8,14,4,18,0.00,8,,173
2014-2-2,48,38,28,39,33,23,96,69,42,30.21,30.03,29.93,10,5,0,12,5,15,0.26,8,Fog-Rain,337
2014-2-3,32,25,17,25,20,13,92,73,53,30.39,30.21,30.09,10,6,1,12,5,17,0.03,6,Snow,12
2014-2-4,31,29,26,25,19,12,92,73,53,30.43,30.20,29.96,10,4,0,12,4,,T,4,Fog-Snow,46
2014-2-5,32,27,22,31,25,16,92,83,74,30.32,29.88,29.61,8,3,0,20,9,27,0.14,8,Fog-Rain-Snow,309
2014-2-6,24,18,12,15,13,9,96,79,62,30.45,30.37,30.31,10,7,2,15,5,20,T,7,Snow,281
2014-2-7,17,8,-1,7,-1,-3,76,61,46,30.45,30.43,30.37,10,10,9,14,5,18,0.00,1,,281
2014-2-8,21,11,0,14,7,-4,87,66,45,30.40,30.29,30.16,10,6,1,7,1,9,T,6,Snow,177
2014-2-9,28,23,17,24,18,10,92,77,62,30.22,30.07,29.98,10,4,0,18,5,24,0.04,8,Fog-Snow,274
2014-2-10,22,14,6,9,6,1,83,65,47,30.41,30.30,30.19,9,6,2,9,4,12,0.00,3,,282
2014-2-11,21,6,-9,5,-3,-15,95,72,49,30.51,30.45,30.35,10,5,1,9,1,11,0.00,1,,330
2014-2-12,31,12,-8,9,1,-13,91,62,32,30.45,30.27,30.06,10,6,2,7,3,9,0.00,0,,54
2014-2-13,37,29,20,22,13,9,65,52,38,30.03,29.81,29.62,10,8,6,10,5,14,0.00,1,,337
2014-2-14,34,30,25,24,21,11,92,69,46,29.75,29.69,29.54,10,4,0,21,9,30,0.07,7,Snow,298
2014-2-15,26,19,11,23,15,6,88,67,46,30.13,29.87,29.70,10,4,1,17,8,24,0.01,6,Snow,327
2014-2-16,27,18,8,21,15,4,84,73,62,30.35,30.09,29.96,8,3,1,16,6,22,T,7,Snow,266
2014-2-17,38,20,1,33,13,-2,91,66,41,30.40,30.13,29.74,10,4,1,26,9,39,0.18,4,Rain-Snow,121
2014-2-18,48,42,36,28,26,22,76,57,38,30.12,29.97,29.84,10,10,9,28,12,40,0.00,4,,221
2014-2-19,48,38,27,40,30,23,92,68,43,30.14,29.91,29.70,10,7,2,26,10,36,0.04,2,Rain,217
2014-2-20,60,42,23,47,32,21,92,77,61,30.13,29.91,29.62,10,6,1,18,7,24,0.14,4,Rain,135
2014-2-21,54,45,35,50,34,15,89,63,36,30.00,29.74,29.57,10,8,2,25,13,37,0.37,6,Rain,226
2014-2-22,55,44,32,27,21,15,64,45,26,30.07,30.00,29.95,10,10,10,18,9,26,0.00,1,,246
2014-2-23,42,34,26,31,25,13,85,68,51,30.13,30.06,30.02,10,10,10,16,5,20,0.00,5,,294
2014-2-24,33,27,21,13,11,6,68,51,33,30.22,30.18,30.12,10,10,10,21,9,29,0.00,1,,269
2014-2-25,28,25,21,19,15,10,81,68,55,30.19,30.12,30.01,10,6,1,14,8,19,T,8,Snow,277
2014-2-26,24,20,15,14,5,0,68,53,38,30.15,30.03,29.84,10,8,1,18,10,25,T,4,Snow,279
2014-2-27,25,17,8,11,4,-4,59,50,41,30.22,29.89,29.73,10,7,1,26,12,37,T,5,Snow,283
2014-2-28,31,16,1,5,-2,-5,87,55,22,30.36,30.26,30.17,10,10,7,13,3,17,0.00,0,,145